FW6260 Weather Reports


Display with metric or nautical units.
time (UTC)temp
F
wind
direction
speed
MPH
gust
MPH
rain 1hr
in
rain 24hr
in
rain mn
in
humidity
%
barometer
mb
20260505223110 52 118 0.0 2.0 0.00 0.00 0.00 94
20260505220040 52 151 0.0 2.0 0.00 0.00 0.00 94
20260505213111 52 155 0.0 1.0 0.00 0.00 0.00 95
20260505210040 52 0.0 0.0 0.00 0.00 0.00 95
20260505203112 53 0.0 1.0 0.00 0.00 0.00 94
20260505200042 54 166 0.0 2.0 0.00 0.00 0.00 93
20260505193112 55 184 1.0 3.0 0.00 0.00 0.00 92
20260505190042 56 171 1.0 3.0 0.00 0.00 0.00 90
20260505183134 58 241 2.0 7.0 0.00 0.00 0.00 88
20260505180103 58 237 2.0 6.0 0.00 0.00 0.00 88
20260505173134 58 229 1.0 7.0 0.00 0.00 0.00 87
20260505170104 59 163 1.0 6.0 0.00 0.00 0.00 85
20260505163116 59 255 2.0 6.0 0.00 0.00 0.00 84
20260505153136 63 257 3.0 14.0 0.00 0.00 0.00 70
20260505150106 66 272 3.0 11.0 0.00 0.00 0.00 62
20260505123018 74 181 1.0 4.0 0.00 0.00 0.00 40
20260505120048 75 178 1.0 4.0 0.00 0.00 0.00 40
20260505113018 76 164 1.0 6.0 0.00 0.00 0.00 39
20260505100050 73 140 1.0 4.0 0.00 0.00 0.00 48
20260505093020 72 138 1.0 3.0 0.00 0.00 0.00 53
20260505090051 72 135 1.0 4.0 0.00 0.00 0.00 56
20260505083021 70 115 1.0 4.0 0.00 0.00 0.00 60
20260505080112 68 144 1.0 4.0 0.00 0.00 0.00 63
20260505073023 65 151 1.0 3.0 0.00 0.00 0.00 68
20260505070053 63 128 0.0 2.0 0.00 0.00 0.00 70
20260505063023 61 101 1.0 3.0 0.00 0.00 0.00 74
20260505060113 58 156 0.0 2.0 0.00 0.00 0.00 78
20260505053026 54 170 0.0 2.0 0.00 0.00 0.00 84
20260505040056 50 172 0.0 2.0 0.00 0.00 0.00 89
20260505033026 51 173 0.0 2.0 0.00 0.00 0.00 87
20260505030056 53 162 1.0 2.0 0.00 0.00 0.00 84
20260505023027 55 188 1.0 3.0 0.00 0.00 0.00 81
20260505020058 56 172 1.0 3.0 0.00 0.00 0.00 78
20260505013028 58 186 1.0 3.0 0.00 0.00 0.00 75
20260505010118 59 182 1.0 3.0 0.00 0.00 0.00 73
20260505003028 60 178 1.0 3.0 0.00 0.00 0.00 70
20260505000059 59 154 0.0 1.0 0.00 0.00 0.00 72
20260504233029 59 169 0.0 2.0 0.00 0.00 0.00 74
20260504230100 61 140 0.0 1.0 0.00 0.00 0.00 71